Time,TemperatureF,DewpointF,PressureIn,WindDirection,WindDirectionDegrees,WindSpeedMPH,WindSpeedGustMPH,Humidity,HourlyPrecipIn,Conditions,Clouds,dailyrainin,SoftwareType,DateUTC
2013-07-09 00:01:00,73.6,61.5,29.85,West,259,0.0,0.0,66,0.00,,,0.00,WeatherCatV1.15B25,2013-07-09 07:01:00,
2013-07-09 00:06:00,73.5,61.4,29.85,West,259,0.0,0.0,66,0.00,,,0.00,WeatherCatV1.15B25,2013-07-09 07:06:00,
2013-07-09 00:11:00,73.4,61.8,29.85,West,259,0.0,0.0,67,0.00,,,0.00,WeatherCatV1.15B25,2013-07-09 07:11:00,
2013-07-09 00:16:00,73.1,61.5,29.86,West,259,0.0,2.0,67,0.00,,,0.00,WeatherCatV1.15B25,2013-07-09 07:16:00,
2013-07-09 00:21:00,73.0,61.4,29.86,West,259,0.0,0.0,67,0.00,,,0.00,WeatherCatV1.15B25,2013-07-09 07:21:00,
2013-07-09 00:26:00,72.9,61.3,29.86,West,259,0.0,0.0,67,0.00,,,0.00,WeatherCatV1.15B25,2013-07-09 07:26:00,
2013-07-09 00:31:00,72.7,61.5,29.86,West,259,0.0,0.0,68,0.00,,,0.00,WeatherCatV1.15B25,2013-07-09 07:31:00,
2013-07-09 00:36:00,72.5,61.3,29.86,West,259,0.0,0.0,68,0.00,,,0.00,WeatherCatV1.15B25,2013-07-09 07:36:00,
2013-07-09 00:41:00,72.3,61.5,29.86,West,259,0.0,0.0,69,0.00,,,0.00,WeatherCatV1.15B25,2013-07-09 07:41:00,
2013-07-09 00:46:00,72.1,61.4,29.86,West,259,0.0,1.0,69,0.00,,,0.00,WeatherCatV1.15B25,2013-07-09 07:46:00,
2013-07-09 00:52:00,71.8,61.1,29.86,West,259,0.0,0.0,69,0.00,,,0.00,WeatherCatV1.15B25,2013-07-09 07:52:00,
2013-07-09 00:57:00,71.5,61.2,29.86,West,259,0.0,0.0,70,0.00,,,0.00,WeatherCatV1.15B25,2013-07-09 07:57:00,
2013-07-09 01:02:00,71.4,61.1,29.86,West,259,0.0,1.0,70,0.00,,,0.00,WeatherCatV1.15B25,2013-07-09 08:02:00,
2013-07-09 01:07:00,71.1,60.8,29.86,West,259,0.0,1.0,70,0.00,,,0.00,WeatherCatV1.15B25,2013-07-09 08:07:00,
2013-07-09 01:12:00,70.9,60.6,29.86,West,259,0.0,0.0,70,0.00,,,0.00,WeatherCatV1.15B25,2013-07-09 08:12:00,
2013-07-09 01:17:00,70.7,60.4,29.86,SW,234,0.0,3.0,70,0.00,,,0.00,WeatherCatV1.15B25,2013-07-09 08:17:00,
2013-07-09 01:22:00,70.7,60.4,29.86,WSW,242,0.0,0.0,70,0.00,,,0.00,WeatherCatV1.15B25,2013-07-09 08:22:00,
2013-07-09 01:27:00,70.6,60.3,29.86,WSW,242,0.0,1.0,70,0.00,,,0.00,WeatherCatV1.15B25,2013-07-09 08:27:00,
2013-07-09 01:32:00,70.5,60.2,29.86,WSW,242,0.0,0.0,70,0.00,,,0.00,WeatherCatV1.15B25,2013-07-09 08:32:00,
2013-07-09 01:37:00,70.4,60.1,29.86,WSW,241,0.0,0.0,70,0.00,,,0.00,WeatherCatV1.15B25,2013-07-09 08:37:00,
2013-07-09 01:42:00,70.3,60.0,29.86,WSW,242,0.0,0.0,70,0.00,,,0.00,WeatherCatV1.15B25,2013-07-09 08:42:00,
2013-07-09 01:47:00,70.1,59.4,29.86,WSW,242,0.0,1.0,69,0.00,,,0.00,WeatherCatV1.15B25,2013-07-09 08:47:00,
2013-07-09 01:52:00,70.0,59.3,29.86,WSW,242,0.0,3.0,69,0.00,,,0.00,WeatherCatV1.15B25,2013-07-09 08:52:00,
2013-07-09 01:57:00,69.9,59.3,29.86,WSW,242,0.0,0.0,69,0.00,,,0.00,WeatherCatV1.15B25,2013-07-09 08:57:00,
2013-07-09 02:02:00,69.7,59.1,29.86,WSW,242,0.0,0.0,69,0.00,,,0.00,WeatherCatV1.15B25,2013-07-09 09:02:00,
2013-07-09 02:07:00,69.6,59.0,29.86,WSW,242,0.0,0.0,69,0.00,,,0.00,WeatherCatV1.15B25,2013-07-09 09:07:00,
2013-07-09 02:12:00,69.4,58.8,29.86,WSW,242,0.0,0.0,69,0.00,,,0.00,WeatherCatV1.15B25,2013-07-09 09:12:00,
2013-07-09 02:17:00,69.1,58.9,29.86,WSW,242,0.0,0.0,70,0.00,,,0.00,WeatherCatV1.15B25,2013-07-09 09:17:00,
2013-07-09 02:22:00,68.9,58.7,29.86,WSW,242,0.0,0.0,70,0.00,,,0.00,WeatherCatV1.15B25,2013-07-09 09:22:00,
2013-07-09 02:27:00,68.6,58.0,29.86,WSW,242,0.0,1.0,69,0.00,,,0.00,WeatherCatV1.15B25,2013-07-09 09:27:00,
2013-07-09 02:32:00,68.3,57.7,29.86,WSW,242,0.0,0.0,69,0.00,,,0.00,WeatherCatV1.15B25,2013-07-09 09:32:00,
2013-07-09 02:37:00,68.1,57.5,29.86,WSW,242,0.0,0.0,69,0.00,,,0.00,WeatherCatV1.15B25,2013-07-09 09:37:00,
2013-07-09 02:42:00,67.8,57.2,29.86,WSW,242,0.0,0.0,69,0.00,,,0.00,WeatherCatV1.15B25,2013-07-09 09:42:00,
2013-07-09 02:47:00,67.5,57.0,29.86,WSW,242,0.0,0.0,69,0.00,,,0.00,WeatherCatV1.15B25,2013-07-09 09:47:00,
2013-07-09 02:52:00,67.2,56.7,29.86,WSW,242,0.0,1.0,69,0.00,,,0.00,WeatherCatV1.15B25,2013-07-09 09:52:00,
2013-07-09 02:57:00,67.1,56.6,29.86,WSW,242,0.0,0.0,69,0.00,,,0.00,WeatherCatV1.15B25,2013-07-09 09:57:00,
2013-07-09 03:02:00,66.9,56.4,29.86,WSW,242,0.0,0.0,69,0.00,,,0.00,WeatherCatV1.15B25,2013-07-09 10:02:00,
2013-07-09 03:07:00,66.7,56.2,29.86,WSW,242,0.0,0.0,69,0.00,,,0.00,WeatherCatV1.15B25,2013-07-09 10:07:00,
2013-07-09 03:12:00,66.5,56.4,29.86,WSW,242,0.0,0.0,70,0.00,,,0.00,WeatherCatV1.15B25,2013-07-09 10:12:00,
2013-07-09 03:17:00,66.4,56.3,29.86,WSW,242,0.0,0.0,70,0.00,,,0.00,WeatherCatV1.15B25,2013-07-09 10:17:00,
2013-07-09 03:22:00,66.3,56.2,29.86,WSW,242,0.0,1.0,70,0.00,,,0.00,WeatherCatV1.15B25,2013-07-09 10:22:00,
2013-07-09 03:27:00,66.1,56.0,29.86,WSW,242,0.0,0.0,70,0.00,,,0.00,WeatherCatV1.15B25,2013-07-09 10:27:00,
2013-07-09 03:32:00,66.1,55.6,29.86,WSW,242,0.0,1.0,69,0.00,,,0.00,WeatherCatV1.15B25,2013-07-09 10:32:00,
2013-07-09 03:37:00,66.1,55.6,29.86,WSW,243,0.0,2.0,69,0.00,,,0.00,WeatherCatV1.15B25,2013-07-09 10:37:00,
2013-07-09 03:42:00,66.0,55.5,29.86,WSW,243,0.0,0.0,69,0.00,,,0.00,WeatherCatV1.15B25,2013-07-09 10:42:00,
2013-07-09 03:47:00,66.0,55.5,29.86,WSW,244,0.0,1.0,69,0.00,,,0.00,WeatherCatV1.15B25,2013-07-09 10:47:00,
2013-07-09 03:52:00,65.9,55.4,29.87,WSW,244,0.0,1.0,69,0.00,,,0.00,WeatherCatV1.15B25,2013-07-09 10:52:00,
2013-07-09 03:57:00,65.9,55.4,29.87,WSW,244,0.0,0.0,69,0.00,,,0.00,WeatherCatV1.15B25,2013-07-09 10:57:00,
2013-07-09 04:02:00,65.8,55.3,29.87,WSW,244,0.0,1.0,69,0.00,,,0.00,WeatherCatV1.15B25,2013-07-09 11:02:00,
2013-07-09 04:07:00,65.6,55.5,29.87,WSW,244,0.0,0.0,70,0.00,,,0.00,WeatherCatV1.15B25,2013-07-09 11:07:00,
2013-07-09 04:12:00,65.6,55.1,29.87,WSW,244,0.0,0.0,69,0.00,,,0.00,WeatherCatV1.15B25,2013-07-09 11:12:00,
2013-07-09 04:17:00,65.4,55.4,29.87,WSW,244,0.0,0.0,70,0.00,,,0.00,WeatherCatV1.15B25,2013-07-09 11:17:00,
2013-07-09 04:22:00,65.2,55.2,29.88,WSW,244,0.0,0.0,70,0.00,,,0.00,WeatherCatV1.15B25,2013-07-09 11:22:00,
2013-07-09 04:27:00,65.0,55.0,29.88,WSW,244,0.0,0.0,70,0.00,,,0.00,WeatherCatV1.15B25,2013-07-09 11:27:00,
2013-07-09 04:32:00,64.7,55.1,29.88,WSW,244,0.0,0.0,71,0.00,,,0.00,WeatherCatV1.15B25,2013-07-09 11:32:00,
2013-07-09 04:37:00,64.5,55.3,29.88,WSW,244,0.0,0.0,72,0.00,,,0.00,WeatherCatV1.15B25,2013-07-09 11:37:00,
2013-07-09 04:42:00,64.2,55.4,29.88,WSW,244,0.0,0.0,73,0.00,,,0.00,WeatherCatV1.15B25,2013-07-09 11:42:00,
2013-07-09 04:47:00,63.9,55.1,29.88,WSW,244,0.0,0.0,73,0.00,,,0.00,WeatherCatV1.15B25,2013-07-09 11:47:00,
2013-07-09 04:52:00,63.6,55.2,29.88,WSW,244,0.0,0.0,74,0.00,,,0.00,WeatherCatV1.15B25,2013-07-09 11:52:00,
2013-07-09 04:57:00,63.3,54.9,29.88,WSW,244,0.0,0.0,74,0.00,,,0.00,WeatherCatV1.15B25,2013-07-09 11:57:00,
2013-07-09 05:02:00,63.1,54.7,29.88,WSW,244,0.0,0.0,74,0.00,,,0.00,WeatherCatV1.15B25,2013-07-09 12:02:00,
2013-07-09 05:07:00,62.8,54.8,29.88,WSW,244,0.0,0.0,75,0.00,,,0.00,WeatherCatV1.15B25,2013-07-09 12:07:00,
2013-07-09 05:12:00,62.6,54.6,29.88,WSW,244,0.0,1.0,75,0.00,,,0.00,WeatherCatV1.15B25,2013-07-09 12:12:00,
2013-07-09 05:17:00,62.5,54.5,29.89,WSW,244,0.0,0.0,75,0.00,,,0.00,WeatherCatV1.15B25,2013-07-09 12:17:00,
2013-07-09 05:22:00,62.4,54.4,29.89,WSW,244,0.0,0.0,75,0.00,,,0.00,WeatherCatV1.15B25,2013-07-09 12:22:00,
2013-07-09 05:27:00,62.3,54.3,29.89,WSW,244,0.0,0.0,75,0.00,,,0.00,WeatherCatV1.15B25,2013-07-09 12:27:00,
2013-07-09 05:32:00,62.3,54.3,29.89,WSW,244,0.0,0.0,75,0.00,,,0.00,WeatherCatV1.15B25,2013-07-09 12:32:00,
2013-07-09 05:37:00,62.2,54.5,29.90,WSW,244,0.0,0.0,76,0.00,,,0.00,WeatherCatV1.15B25,2013-07-09 12:37:00,
2013-07-09 05:43:00,62.1,54.8,29.90,WSW,244,0.0,0.0,77,0.00,,,0.00,WeatherCatV1.15B25,2013-07-09 12:43:00,
2013-07-09 05:48:00,62.0,54.7,29.90,WSW,244,0.0,0.0,77,0.00,,,0.00,WeatherCatV1.15B25,2013-07-09 12:48:00,
2013-07-09 05:53:00,61.7,54.8,29.90,NNW,337,0.0,0.0,78,0.00,,,0.00,WeatherCatV1.15B25,2013-07-09 12:53:00,
2013-07-09 05:57:00,61.6,54.7,29.91,NNW,337,0.0,0.0,78,0.00,,,0.00,WeatherCatV1.15B25,2013-07-09 12:57:00,
2013-07-09 06:02:00,61.4,54.5,29.91,NNW,337,0.0,0.0,78,0.00,,,0.00,WeatherCatV1.15B25,2013-07-09 13:02:00,
2013-07-09 06:07:00,61.3,54.7,29.91,NNW,337,0.0,0.0,79,0.00,,,0.00,WeatherCatV1.15B25,2013-07-09 13:07:00,
2013-07-09 06:13:00,61.1,54.9,29.91,NW,323,0.0,1.0,80,0.00,,,0.00,WeatherCatV1.15B25,2013-07-09 13:13:00,
2013-07-09 06:18:00,60.9,54.7,29.91,NW,322,0.0,0.0,80,0.00,,,0.00,WeatherCatV1.15B25,2013-07-09 13:18:00,
2013-07-09 06:23:00,60.8,54.9,29.91,NW,323,0.0,0.0,81,0.00,,,0.00,WeatherCatV1.15B25,2013-07-09 13:23:00,
2013-07-09 06:28:00,60.7,54.8,29.92,WNW,291,0.0,0.0,81,0.00,,,0.00,WeatherCatV1.15B25,2013-07-09 13:28:00,
2013-07-09 06:33:00,60.7,55.2,29.92,WNW,290,0.0,1.0,82,0.00,,,0.00,WeatherCatV1.15B25,2013-07-09 13:33:00,
2013-07-09 06:38:00,60.9,55.4,29.92,WNW,288,0.0,0.0,82,0.00,,,0.00,WeatherCatV1.15B25,2013-07-09 13:38:00,
2013-07-09 06:43:00,61.1,55.6,29.92,WNW,288,0.0,0.0,82,0.00,,,0.00,WeatherCatV1.15B25,2013-07-09 13:43:00,
2013-07-09 06:48:00,61.3,55.8,29.93,WNW,288,0.0,0.0,82,0.00,,,0.00,WeatherCatV1.15B25,2013-07-09 13:48:00,
2013-07-09 06:53:00,61.4,55.9,29.93,WNW,288,0.0,0.0,82,0.00,,,0.00,WeatherCatV1.15B25,2013-07-09 13:53:00,
2013-07-09 06:58:00,61.6,56.0,29.93,WNW,288,0.0,0.0,82,0.00,,,0.00,WeatherCatV1.15B25,2013-07-09 13:58:00,
2013-07-09 07:03:00,61.8,56.2,29.93,WNW,288,0.0,0.0,82,0.00,,,0.00,WeatherCatV1.15B25,2013-07-09 14:03:00,
2013-07-09 07:08:00,62.2,56.6,29.93,WNW,288,0.0,0.0,82,0.00,,,0.00,WeatherCatV1.15B25,2013-07-09 14:08:00,
2013-07-09 07:13:00,62.5,57.3,29.93,WNW,288,0.0,0.0,83,0.00,,,0.00,WeatherCatV1.15B25,2013-07-09 14:13:00,
2013-07-09 07:18:00,62.8,57.2,29.93,WNW,288,0.0,0.0,82,0.00,,,0.00,WeatherCatV1.15B25,2013-07-09 14:18:00,
2013-07-09 07:23:00,63.2,56.9,29.93,WNW,288,0.0,0.0,80,0.00,,,0.00,WeatherCatV1.15B25,2013-07-09 14:23:00,
2013-07-09 07:28:00,63.9,56.5,29.94,WNW,288,0.0,1.0,77,0.00,,,0.00,WeatherCatV1.15B25,2013-07-09 14:28:00,
2013-07-09 07:33:00,64.8,56.7,29.94,WNW,287,0.0,2.0,75,0.00,,,0.00,WeatherCatV1.15B25,2013-07-09 14:33:00,
2013-07-09 07:38:00,65.6,56.7,29.94,WNW,284,0.0,1.0,73,0.00,,,0.00,WeatherCatV1.15B25,2013-07-09 14:38:00,
2013-07-09 07:43:00,66.2,56.9,29.94,WNW,283,0.0,1.0,72,0.00,,,0.00,WeatherCatV1.15B25,2013-07-09 14:43:00,
2013-07-09 07:48:00,67.0,56.5,29.94,WNW,283,0.0,0.0,69,0.00,,,0.00,WeatherCatV1.15B25,2013-07-09 14:48:00,
2013-07-09 07:53:00,67.6,56.7,29.94,WNW,284,0.0,0.0,68,0.00,,,0.00,WeatherCatV1.15B25,2013-07-09 14:53:00,
2013-07-09 07:58:00,68.3,56.9,29.94,West,281,1.0,2.0,67,0.00,,,0.00,WeatherCatV1.15B25,2013-07-09 14:58:00,
2013-07-09 08:03:00,68.9,58.3,29.94,West,281,0.0,0.0,69,0.00,,,0.00,WeatherCatV1.15B25,2013-07-09 15:03:00,
2013-07-09 08:08:00,69.8,58.3,29.94,West,281,0.0,0.0,67,0.00,,,0.00,WeatherCatV1.15B25,2013-07-09 15:08:00,
2013-07-09 08:13:00,70.6,57.4,29.94,West,281,0.0,0.0,63,0.00,,,0.00,WeatherCatV1.15B25,2013-07-09 15:13:00,
2013-07-09 08:18:00,71.4,57.2,29.95,West,281,0.0,0.0,61,0.00,,,0.00,WeatherCatV1.15B25,2013-07-09 15:18:00,
2013-07-09 08:23:00,72.2,58.0,29.95,West,281,0.0,0.0,61,0.00,,,0.00,WeatherCatV1.15B25,2013-07-09 15:23:00,
2013-07-09 08:28:00,73.0,59.2,29.95,West,281,0.0,0.0,62,0.00,,,0.00,WeatherCatV1.15B25,2013-07-09 15:28:00,
2013-07-09 08:33:00,74.0,58.3,29.95,West,281,0.0,0.0,58,0.00,,,0.00,WeatherCatV1.15B25,2013-07-09 15:33:00,
2013-07-09 08:38:00,74.9,59.6,29.95,WSW,244,0.0,1.0,59,0.00,,,0.00,WeatherCatV1.15B25,2013-07-09 15:38:00,
2013-07-09 08:43:00,75.3,57.5,29.95,SW,231,0.0,2.0,54,0.00,,,0.00,WeatherCatV1.15B25,2013-07-09 15:43:00,
2013-07-09 08:48:00,76.1,57.7,29.95,SSW,195,0.0,1.0,53,0.00,,,0.00,WeatherCatV1.15B25,2013-07-09 15:48:00,
2013-07-09 08:53:00,76.7,58.3,29.95,SSW,196,1.0,1.0,53,0.00,,,0.00,WeatherCatV1.15B25,2013-07-09 15:53:00,
2013-07-09 08:58:00,77.3,58.3,29.95,SSW,195,0.0,1.0,52,0.00,,,0.00,WeatherCatV1.15B25,2013-07-09 15:58:00,
2013-07-09 09:03:00,77.9,57.7,29.95,SSW,196,1.0,1.0,50,0.00,,,0.00,WeatherCatV1.15B25,2013-07-09 16:03:00,
2013-07-09 09:08:00,78.6,57.8,29.95,SSW,196,0.0,0.0,49,0.00,,,0.00,WeatherCatV1.15B25,2013-07-09 16:08:00,
2013-07-09 09:13:00,79.2,58.4,29.95,SSW,199,0.0,0.0,49,0.00,,,0.00,WeatherCatV1.15B25,2013-07-09 16:13:00,
2013-07-09 09:18:00,79.5,58.6,29.95,SSW,201,0.0,1.0,49,0.00,,,0.00,WeatherCatV1.15B25,2013-07-09 16:18:00,
2013-07-09 09:23:00,79.8,60.0,29.95,SSW,201,0.0,0.0,51,0.00,,,0.00,WeatherCatV1.15B25,2013-07-09 16:23:00,
2013-07-09 09:28:00,80.4,60.6,29.95,SSW,200,0.0,0.0,51,0.00,,,0.00,WeatherCatV1.15B25,2013-07-09 16:28:00,
2013-07-09 09:33:00,80.9,58.8,29.95,SSW,200,0.0,0.0,47,0.00,,,0.00,WeatherCatV1.15B25,2013-07-09 16:33:00,
2013-07-09 09:38:00,81.4,59.8,29.95,SSW,201,0.0,0.0,48,0.00,,,0.00,WeatherCatV1.15B25,2013-07-09 16:38:00,
2013-07-09 09:43:00,81.8,59.0,29.95,SSW,200,0.0,0.0,46,0.00,,,0.00,WeatherCatV1.15B25,2013-07-09 16:43:00,
2013-07-09 09:48:00,82.1,61.0,29.95,SSW,202,0.0,1.0,49,0.00,,,0.00,WeatherCatV1.15B25,2013-07-09 16:48:00,
2013-07-09 09:53:00,82.5,59.6,29.95,SSW,202,0.0,1.0,46,0.00,,,0.00,WeatherCatV1.15B25,2013-07-09 16:53:00,
2013-07-09 09:58:00,82.7,60.4,29.95,East,101,0.0,1.0,47,0.00,,,0.00,WeatherCatV1.15B25,2013-07-09 16:58:00,
2013-07-09 10:03:00,83.1,60.1,29.95,SE,136,1.0,3.0,46,0.00,,,0.00,WeatherCatV1.15B25,2013-07-09 17:03:00,
2013-07-09 10:08:00,83.8,60.8,29.95,SE,135,0.0,1.0,46,0.00,,,0.00,WeatherCatV1.15B25,2013-07-09 17:08:00,
2013-07-09 10:13:00,83.7,59.4,29.94,East,98,0.0,1.0,44,0.00,,,0.00,WeatherCatV1.15B25,2013-07-09 17:13:00,
2013-07-09 10:18:00,83.8,59.5,29.94,ENE,57,0.0,1.0,44,0.00,,,0.00,WeatherCatV1.15B25,2013-07-09 17:18:00,
2013-07-09 10:23:00,84.2,61.1,29.94,NE,53,0.0,0.0,46,0.00,,,0.00,WeatherCatV1.15B25,2013-07-09 17:23:00,
2013-07-09 10:28:00,84.5,60.8,29.95,WSW,242,0.0,1.0,45,0.00,,,0.00,WeatherCatV1.15B25,2013-07-09 17:28:00,
2013-07-09 10:33:00,85.0,60.6,29.95,SSW,200,1.0,3.0,44,0.00,,,0.00,WeatherCatV1.15B25,2013-07-09 17:33:00,
2013-07-09 10:38:00,85.0,63.1,29.95,WSW,238,0.0,1.0,48,0.00,,,0.00,WeatherCatV1.15B25,2013-07-09 17:38:00,
2013-07-09 10:43:00,84.9,61.2,29.94,WSW,241,0.0,0.0,45,0.00,,,0.00,WeatherCatV1.15B25,2013-07-09 17:43:00,
2013-07-09 10:48:00,85.0,62.5,29.94,NNW,334,0.0,1.0,47,0.00,,,0.00,WeatherCatV1.15B25,2013-07-09 17:48:00,
2013-07-09 10:53:00,85.0,60.0,29.94,NNW,336,2.0,2.0,43,0.00,,,0.00,WeatherCatV1.15B25,2013-07-09 17:53:00,
2013-07-09 10:58:00,85.3,62.1,29.94,NNW,333,0.0,3.0,46,0.00,,,0.00,WeatherCatV1.15B25,2013-07-09 17:58:00,
2013-07-09 11:03:00,85.7,60.6,29.94,NNW,336,0.0,0.0,43,0.00,,,0.00,WeatherCatV1.15B25,2013-07-09 18:03:00,
2013-07-09 11:08:00,86.5,60.6,29.94,NNW,336,0.0,0.0,42,0.00,,,0.00,WeatherCatV1.15B25,2013-07-09 18:08:00,
2013-07-09 11:13:00,87.2,59.9,29.94,NNW,336,0.0,2.0,40,0.00,,,0.00,WeatherCatV1.15B25,2013-07-09 18:13:00,
2013-07-09 11:18:00,87.5,63.5,29.94,NNW,336,0.0,1.0,45,0.00,,,0.00,WeatherCatV1.15B25,2013-07-09 18:18:00,
2013-07-09 11:23:00,88.2,62.2,29.94,NNW,331,0.0,1.0,42,0.00,,,0.00,WeatherCatV1.15B25,2013-07-09 18:23:00,
2013-07-09 11:28:00,88.2,61.5,29.94,West,264,0.0,3.0,41,0.00,,,0.00,WeatherCatV1.15B25,2013-07-09 18:28:00,
2013-07-09 11:33:00,88.4,62.3,29.94,NW,310,0.0,4.0,42,0.00,,,0.00,WeatherCatV1.15B25,2013-07-09 18:33:00,
2013-07-09 11:38:00,88.6,63.2,29.93,NW,304,0.0,4.0,43,0.00,,,0.00,WeatherCatV1.15B25,2013-07-09 18:38:00,
2013-07-09 11:43:00,88.8,62.0,29.93,NW,316,1.0,5.0,41,0.00,,,0.00,WeatherCatV1.15B25,2013-07-09 18:43:00,
2013-07-09 11:48:00,88.8,65.3,29.93,North,355,1.0,2.0,46,0.00,,,0.00,WeatherCatV1.15B25,2013-07-09 18:48:00,
2013-07-09 11:53:00,89.3,65.1,29.93,SW,221,0.0,1.0,45,0.00,,,0.00,WeatherCatV1.15B25,2013-07-09 18:53:00,
2013-07-09 11:58:00,89.9,65.7,29.93,SW,234,0.0,1.0,45,0.00,,,0.00,WeatherCatV1.15B25,2013-07-09 18:58:00,
2013-07-09 12:03:00,90.2,67.2,29.93,WSW,241,0.0,2.0,47,0.00,,,0.00,WeatherCatV1.15B25,2013-07-09 19:03:00,
2013-07-09 12:08:00,90.4,64.8,29.93,West,265,0.0,2.0,43,0.00,,,0.00,WeatherCatV1.15B25,2013-07-09 19:08:00,
2013-07-09 12:13:00,90.6,65.0,29.93,SE,136,0.0,1.0,43,0.00,,,0.00,WeatherCatV1.15B25,2013-07-09 19:13:00,
2013-07-09 12:18:00,91.1,66.8,29.93,SW,215,0.0,2.0,45,0.00,,,0.00,WeatherCatV1.15B25,2013-07-09 19:18:00,
2013-07-09 12:23:00,91.6,65.9,29.93,SW,227,2.0,3.0,43,0.00,,,0.00,WeatherCatV1.15B25,2013-07-09 19:23:00,
2013-07-09 12:28:00,91.6,64.5,29.93,SSW,196,0.0,3.0,41,0.00,,,0.00,WeatherCatV1.15B25,2013-07-09 19:28:00,
2013-07-09 12:33:00,91.6,60.0,29.93,South,176,2.0,4.0,35,0.00,,,0.00,WeatherCatV1.15B25,2013-07-09 19:33:00,
2013-07-09 12:38:00,91.9,61.9,29.93,South,183,1.0,2.0,37,0.00,,,0.00,WeatherCatV1.15B25,2013-07-09 19:38:00,
2013-07-09 12:43:00,92.3,66.5,29.93,South,190,0.0,0.0,43,0.00,,,0.00,WeatherCatV1.15B25,2013-07-09 19:43:00,
2013-07-09 12:48:00,92.6,63.2,29.93,WNW,284,0.0,2.0,38,0.00,,,0.00,WeatherCatV1.15B25,2013-07-09 19:48:00,
2013-07-09 12:53:00,92.8,63.4,29.93,WNW,294,0.0,3.0,38,0.00,,,0.00,WeatherCatV1.15B25,2013-07-09 19:53:00,
2013-07-09 12:58:00,92.7,61.8,29.93,SW,232,1.0,2.0,36,0.00,,,0.00,WeatherCatV1.15B25,2013-07-09 19:58:00,
2013-07-09 13:03:00,93.1,63.7,29.93,SW,216,0.0,1.0,38,0.00,,,0.00,WeatherCatV1.15B25,2013-07-09 20:03:00,
2013-07-09 13:08:00,93.6,63.4,29.92,WNW,302,1.0,3.0,37,0.00,,,0.00,WeatherCatV1.15B25,2013-07-09 20:08:00,
2013-07-09 13:13:00,93.4,63.2,29.92,NW,312,0.0,2.0,37,0.00,,,0.00,WeatherCatV1.15B25,2013-07-09 20:13:00,
2013-07-09 13:18:00,94.0,63.7,29.92,NW,318,0.0,5.0,37,0.00,,,0.00,WeatherCatV1.15B25,2013-07-09 20:18:00,
2013-07-09 13:23:00,94.2,66.1,29.92,NW,318,0.0,0.0,40,0.00,,,0.00,WeatherCatV1.15B25,2013-07-09 20:23:00,
2013-07-09 13:28:00,94.9,65.3,29.92,WSW,248,2.0,2.0,38,0.00,,,0.00,WeatherCatV1.15B25,2013-07-09 20:28:00,
2013-07-09 13:33:00,95.4,64.9,29.92,SW,222,0.0,2.0,37,0.00,,,0.00,WeatherCatV1.15B25,2013-07-09 20:33:00,
2013-07-09 13:38:00,95.5,62.6,29.92,SSW,205,1.0,3.0,34,0.00,,,0.00,WeatherCatV1.15B25,2013-07-09 20:38:00,
2013-07-09 13:43:00,95.4,64.2,29.91,WSW,240,3.0,5.0,36,0.00,,,0.00,WeatherCatV1.15B25,2013-07-09 20:43:00,
2013-07-09 13:48:00,95.3,62.4,29.91,SW,215,3.0,3.0,34,0.00,,,0.00,WeatherCatV1.15B25,2013-07-09 20:48:00,
2013-07-09 13:53:00,95.7,65.2,29.91,NW,322,0.0,1.0,37,0.00,,,0.00,WeatherCatV1.15B25,2013-07-09 20:53:00,
2013-07-09 13:58:00,95.8,63.7,29.91,West,273,0.0,4.0,35,0.00,,,0.00,WeatherCatV1.15B25,2013-07-09 20:58:00,
2013-07-09 14:03:00,96.7,65.3,29.90,WNW,283,0.0,0.0,36,0.00,,,0.00,WeatherCatV1.15B25,2013-07-09 21:03:00,
2013-07-09 14:08:00,97.3,68.9,29.90,WNW,284,1.0,1.0,40,0.00,,,0.00,WeatherCatV1.15B25,2013-07-09 21:08:00,
2013-07-09 14:13:00,97.8,67.0,29.90,WSW,238,0.0,2.0,37,0.00,,,0.00,WeatherCatV1.15B25,2013-07-09 21:13:00,
2013-07-09 14:18:00,98.0,69.5,29.90,WSW,257,1.0,3.0,40,0.00,,,0.00,WeatherCatV1.15B25,2013-07-09 21:18:00,
2013-07-09 14:23:00,98.0,65.6,29.90,NNW,328,0.0,2.0,35,0.00,,,0.00,WeatherCatV1.15B25,2013-07-09 21:23:00,
2013-07-09 14:28:00,98.3,68.3,29.89,NW,317,0.0,1.0,38,0.00,,,0.00,WeatherCatV1.15B25,2013-07-09 21:28:00,
2013-07-09 14:33:00,98.7,67.0,29.89,SW,236,7.0,7.0,36,0.00,,,0.00,WeatherCatV1.15B25,2013-07-09 21:33:00,
2013-07-09 14:38:00,98.8,66.3,29.89,WSW,237,2.0,2.0,35,0.00,,,0.00,WeatherCatV1.15B25,2013-07-09 21:38:00,
2013-07-09 14:43:00,99.1,67.4,29.89,SW,223,0.0,5.0,36,0.00,,,0.00,WeatherCatV1.15B25,2013-07-09 21:43:00,
2013-07-09 14:48:00,99.2,65.0,29.89,NNW,327,0.0,3.0,33,0.00,,,0.00,WeatherCatV1.15B25,2013-07-09 21:48:00,
2013-07-09 14:53:00,99.4,68.5,29.88,NNW,330,1.0,2.0,37,0.00,,,0.00,WeatherCatV1.15B25,2013-07-09 21:53:00,
2013-07-09 14:58:00,99.7,67.1,29.88,ENE,69,0.0,0.0,35,0.00,,,0.00,WeatherCatV1.15B25,2013-07-09 21:58:00,
2013-07-09 15:03:00,99.9,66.4,29.88,SW,234,0.0,3.0,34,0.00,,,0.00,WeatherCatV1.15B25,2013-07-09 22:03:00,
2013-07-09 15:08:00,100.3,65.0,29.88,NNW,330,0.0,1.0,32,0.00,,,0.00,WeatherCatV1.15B25,2013-07-09 22:08:00,
2013-07-09 15:13:00,100.0,66.5,29.88,North,5,0.0,0.0,34,0.00,,,0.00,WeatherCatV1.15B25,2013-07-09 22:13:00,
2013-07-09 15:18:00,100.5,67.0,29.88,ENE,71,0.0,1.0,34,0.00,,,0.00,WeatherCatV1.15B25,2013-07-09 22:18:00,
2013-07-09 15:23:00,100.8,66.4,29.88,North,351,2.0,4.0,33,0.00,,,0.00,WeatherCatV1.15B25,2013-07-09 22:23:00,
2013-07-09 15:28:00,100.8,65.5,29.87,NW,325,0.0,2.0,32,0.00,,,0.00,WeatherCatV1.15B25,2013-07-09 22:28:00,
2013-07-09 15:33:00,100.2,61.1,29.87,North,355,3.0,3.0,28,0.00,,,0.00,WeatherCatV1.15B25,2013-07-09 22:33:00,
2013-07-09 15:38:00,99.8,63.7,29.87,North,355,0.0,1.0,31,0.00,,,0.00,WeatherCatV1.15B25,2013-07-09 22:38:00,
2013-07-09 15:43:00,99.9,66.4,29.87,North,355,0.0,2.0,34,0.00,,,0.00,WeatherCatV1.15B25,2013-07-09 22:43:00,
2013-07-09 15:48:00,100.2,69.2,29.87,NNW,346,0.0,0.0,37,0.00,,,0.00,WeatherCatV1.15B25,2013-07-09 22:48:00,
2013-07-09 15:53:00,100.9,65.6,29.86,NNW,346,0.0,0.0,32,0.00,,,0.00,WeatherCatV1.15B25,2013-07-09 22:53:00,
2013-07-09 15:58:00,100.7,65.4,29.86,NNE,14,2.0,3.0,32,0.00,,,0.00,WeatherCatV1.15B25,2013-07-09 22:58:00,
2013-07-09 16:03:00,100.7,65.4,29.86,North,9,0.0,0.0,32,0.00,,,0.00,WeatherCatV1.15B25,2013-07-09 23:03:00,
2013-07-09 16:08:00,100.6,64.4,29.86,North,0,0.0,1.0,31,0.00,,,0.00,WeatherCatV1.15B25,2013-07-09 23:08:00,
2013-07-09 16:13:00,100.8,63.6,29.86,North,355,0.0,3.0,30,0.00,,,0.00,WeatherCatV1.15B25,2013-07-09 23:13:00,
2013-07-09 16:18:00,100.7,62.6,29.85,NNE,30,0.0,4.0,29,0.00,,,0.00,WeatherCatV1.15B25,2013-07-09 23:18:00,
2013-07-09 16:23:00,100.6,59.4,29.85,NW,322,2.0,3.0,26,0.00,,,0.00,WeatherCatV1.15B25,2013-07-09 23:23:00,
2013-07-09 16:28:00,100.6,60.5,29.85,NNW,340,1.0,2.0,27,0.00,,,0.00,WeatherCatV1.15B25,2013-07-09 23:28:00,
2013-07-09 16:33:00,100.8,63.6,29.85,NNW,340,0.0,0.0,30,0.00,,,0.00,WeatherCatV1.15B25,2013-07-09 23:33:00,
2013-07-09 16:38:00,101.3,61.0,29.85,NNW,342,0.0,3.0,27,0.00,,,0.00,WeatherCatV1.15B25,2013-07-09 23:38:00,
2013-07-09 16:43:00,101.4,63.2,29.84,NNW,344,3.0,3.0,29,0.00,,,0.00,WeatherCatV1.15B25,2013-07-09 23:43:00,
2013-07-09 16:48:00,101.2,58.8,29.84,NNW,347,0.0,1.0,25,0.00,,,0.00,WeatherCatV1.15B25,2013-07-09 23:48:00,
2013-07-09 16:53:00,101.3,60.0,29.84,NNW,347,0.0,1.0,26,0.00,,,0.00,WeatherCatV1.15B25,2013-07-09 23:53:00,
2013-07-09 16:58:00,101.1,58.7,29.83,North,355,2.0,4.0,25,0.00,,,0.00,WeatherCatV1.15B25,2013-07-09 23:58:00,
2013-07-09 17:03:00,101.0,59.7,29.83,NNW,342,1.0,1.0,26,0.00,,,0.00,WeatherCatV1.15B25,2013-07-10 00:03:00,
2013-07-09 17:08:00,101.2,58.8,29.83,NNW,342,0.0,3.0,25,0.00,,,0.00,WeatherCatV1.15B25,2013-07-10 00:08:00,
2013-07-09 17:13:00,101.5,60.2,29.83,NNW,343,0.0,5.0,26,0.00,,,0.00,WeatherCatV1.15B25,2013-07-10 00:13:00,
2013-07-09 17:18:00,101.6,62.3,29.83,NNW,344,0.0,1.0,28,0.00,,,0.00,WeatherCatV1.15B25,2013-07-10 00:18:00,
2013-07-09 17:23:00,101.7,60.3,29.83,NNW,344,2.0,2.0,26,0.00,,,0.00,WeatherCatV1.15B25,2013-07-10 00:23:00,
2013-07-09 17:28:00,101.7,61.4,29.83,NNW,344,0.0,1.0,27,0.00,,,0.00,WeatherCatV1.15B25,2013-07-10 00:28:00,
2013-07-09 17:33:00,101.8,61.5,29.83,NNW,344,0.0,1.0,27,0.00,,,0.00,WeatherCatV1.15B25,2013-07-10 00:33:00,
2013-07-09 17:38:00,101.9,61.6,29.82,NNW,344,0.0,1.0,27,0.00,,,0.00,WeatherCatV1.15B25,2013-07-10 00:38:00,
2013-07-09 17:43:00,102.0,60.6,29.82,NNW,344,1.0,3.0,26,0.00,,,0.00,WeatherCatV1.15B25,2013-07-10 00:43:00,
2013-07-09 17:48:00,102.0,60.6,29.82,NNW,344,0.0,0.0,26,0.00,,,0.00,WeatherCatV1.15B25,2013-07-10 00:48:00,
2013-07-09 17:53:00,101.7,61.4,29.82,NNW,344,0.0,1.0,27,0.00,,,0.00,WeatherCatV1.15B25,2013-07-10 00:53:00,
2013-07-09 17:58:00,101.7,62.4,29.82,NNW,344,0.0,1.0,28,0.00,,,0.00,WeatherCatV1.15B25,2013-07-10 00:58:00,
2013-07-09 18:03:00,102.0,68.3,29.82,NNW,344,0.0,0.0,34,0.00,,,0.00,WeatherCatV1.15B25,2013-07-10 01:03:00,
2013-07-09 18:08:00,102.3,64.9,29.81,NNW,344,0.0,0.0,30,0.00,,,0.00,WeatherCatV1.15B25,2013-07-10 01:08:00,
2013-07-09 18:13:00,102.6,65.2,29.81,NNW,344,0.0,0.0,30,0.00,,,0.00,WeatherCatV1.15B25,2013-07-10 01:13:00,
2013-07-09 18:18:00,102.8,64.4,29.81,NNW,344,0.0,0.0,29,0.00,,,0.00,WeatherCatV1.15B25,2013-07-10 01:18:00,
2013-07-09 18:23:00,103.0,64.5,29.81,NNW,344,0.0,1.0,29,0.00,,,0.00,WeatherCatV1.15B25,2013-07-10 01:23:00,
2013-07-09 18:28:00,103.2,69.3,29.81,NNW,344,0.0,0.0,34,0.00,,,0.00,WeatherCatV1.15B25,2013-07-10 01:28:00,
2013-07-09 18:33:00,103.2,71.0,29.80,NNW,344,0.0,0.0,36,0.00,,,0.00,WeatherCatV1.15B25,2013-07-10 01:33:00,
2013-07-09 18:38:00,102.8,67.2,29.81,NNW,344,0.0,0.0,32,0.00,,,0.00,WeatherCatV1.15B25,2013-07-10 01:38:00,
2013-07-09 18:43:00,102.5,66.9,29.81,NNW,344,0.0,0.0,32,0.00,,,0.00,WeatherCatV1.15B25,2013-07-10 01:43:00,
2013-07-09 18:48:00,102.3,68.5,29.80,SSE,163,0.0,0.0,34,0.00,,,0.00,WeatherCatV1.15B25,2013-07-10 01:48:00,
2013-07-09 18:53:00,102.1,69.2,29.80,SE,146,0.0,0.0,35,0.00,,,0.00,WeatherCatV1.15B25,2013-07-10 01:53:00,
2013-07-09 18:58:00,101.8,73.6,29.80,SE,146,0.0,0.0,41,0.00,,,0.00,WeatherCatV1.15B25,2013-07-10 01:58:00,
2013-07-09 19:03:00,101.0,75.7,29.80,SE,146,0.0,0.0,45,0.00,,,0.00,WeatherCatV1.15B25,2013-07-10 02:03:00,
2013-07-09 19:08:00,100.0,76.7,29.80,SE,146,0.0,0.0,48,0.00,,,0.00,WeatherCatV1.15B25,2013-07-10 02:08:00,
2013-07-09 19:13:00,99.1,76.5,29.81,SE,146,0.0,0.0,49,0.00,,,0.00,WeatherCatV1.15B25,2013-07-10 02:13:00,
2013-07-09 19:18:00,98.3,71.2,29.81,SE,145,0.0,0.0,42,0.00,,,0.00,WeatherCatV1.15B25,2013-07-10 02:18:00,
2013-07-09 19:23:00,97.5,70.5,29.81,NE,37,0.0,1.0,42,0.00,,,0.00,WeatherCatV1.15B25,2013-07-10 02:23:00,
2013-07-09 19:28:00,96.9,75.7,29.81,NE,37,0.0,0.0,51,0.00,,,0.00,WeatherCatV1.15B25,2013-07-10 02:28:00,
2013-07-09 19:33:00,96.2,76.2,29.81,NE,37,0.0,0.0,53,0.00,,,0.00,WeatherCatV1.15B25,2013-07-10 02:33:00,
2013-07-09 19:38:00,95.3,76.5,29.81,NE,37,0.0,0.0,55,0.00,,,0.00,WeatherCatV1.15B25,2013-07-10 02:38:00,
2013-07-09 19:43:00,94.4,75.1,29.81,NE,37,0.0,0.0,54,0.00,,,0.00,WeatherCatV1.15B25,2013-07-10 02:43:00,
2013-07-09 19:48:00,93.5,74.9,29.81,NE,37,0.0,0.0,55,0.00,,,0.00,WeatherCatV1.15B25,2013-07-10 02:48:00,
2013-07-09 19:53:00,92.4,73.8,29.81,NE,37,0.0,0.0,55,0.00,,,0.00,WeatherCatV1.15B25,2013-07-10 02:53:00,
2013-07-09 19:58:00,91.5,70.2,29.81,NE,37,0.0,0.0,50,0.00,,,0.00,WeatherCatV1.15B25,2013-07-10 02:58:00,
2013-07-09 20:03:00,90.8,69.0,29.81,NE,37,0.0,1.0,49,0.00,,,0.00,WeatherCatV1.15B25,2013-07-10 03:03:00,
2013-07-09 20:08:00,90.2,68.4,29.81,NE,37,0.0,0.0,49,0.00,,,0.00,WeatherCatV1.15B25,2013-07-10 03:08:00,
2013-07-09 20:13:00,89.8,68.6,29.81,NE,37,0.0,0.0,50,0.00,,,0.00,WeatherCatV1.15B25,2013-07-10 03:13:00,
2013-07-09 20:18:00,89.2,69.2,29.81,NE,37,0.0,0.0,52,0.00,,,0.00,WeatherCatV1.15B25,2013-07-10 03:18:00,
2013-07-09 20:23:00,88.4,69.6,29.81,NE,37,0.0,0.0,54,0.00,,,0.00,WeatherCatV1.15B25,2013-07-10 03:23:00,
2013-07-09 20:28:00,87.8,70.1,29.81,NE,37,0.0,0.0,56,0.00,,,0.00,WeatherCatV1.15B25,2013-07-10 03:28:00,
2013-07-09 20:32:00,87.1,70.0,29.81,NE,37,0.0,0.0,57,0.00,,,0.00,WeatherCatV1.15B25,2013-07-10 03:32:00,
2013-07-09 20:37:00,86.1,69.6,29.81,NE,37,0.0,0.0,58,0.00,,,0.00,WeatherCatV1.15B25,2013-07-10 03:37:00,
2013-07-09 20:42:00,85.1,68.6,29.81,NE,37,0.0,0.0,58,0.00,,,0.00,WeatherCatV1.15B25,2013-07-10 03:42:00,
2013-07-09 20:47:00,84.4,68.5,29.81,NE,37,0.0,0.0,59,0.00,,,0.00,WeatherCatV1.15B25,2013-07-10 03:47:00,
2013-07-09 20:52:00,83.8,68.9,29.81,NE,37,0.0,0.0,61,0.00,,,0.00,WeatherCatV1.15B25,2013-07-10 03:52:00,
2013-07-09 20:57:00,83.5,68.6,29.81,NE,37,0.0,0.0,61,0.00,,,0.00,WeatherCatV1.15B25,2013-07-10 03:57:00,
2013-07-09 21:01:00,83.3,67.9,29.82,NE,37,0.0,0.0,60,0.00,,,0.00,WeatherCatV1.15B25,2013-07-10 04:01:00,
2013-07-09 21:06:00,82.6,67.8,29.82,NE,37,0.0,0.0,61,0.00,,,0.00,WeatherCatV1.15B25,2013-07-10 04:06:00,
2013-07-09 21:11:00,82.1,68.7,29.82,NE,37,0.0,0.0,64,0.00,,,0.00,WeatherCatV1.15B25,2013-07-10 04:11:00,
2013-07-09 21:12:00,82.0,68.6,29.82,NE,37,0.0,0.0,64,0.00,,,0.00,WeatherCatV1.15B25,2013-07-10 04:12:00,
2013-07-09 21:18:00,81.4,68.5,29.82,NE,37,0.0,0.0,65,0.00,,,0.00,WeatherCatV1.15B25,2013-07-10 04:18:00,
2013-07-09 21:23:00,81.1,67.7,29.83,NE,37,0.0,0.0,64,0.00,,,0.00,WeatherCatV1.15B25,2013-07-10 04:23:00,
2013-07-09 21:28:00,80.8,67.5,29.83,NE,37,0.0,0.0,64,0.00,,,0.00,WeatherCatV1.15B25,2013-07-10 04:28:00,
2013-07-09 21:33:00,80.5,67.2,29.83,NE,37,0.0,0.0,64,0.00,,,0.00,WeatherCatV1.15B25,2013-07-10 04:33:00,
2013-07-09 21:38:00,80.1,67.2,29.83,NE,37,0.0,0.0,65,0.00,,,0.00,WeatherCatV1.15B25,2013-07-10 04:38:00,
2013-07-09 21:43:00,79.8,66.5,29.83,NE,37,0.0,0.0,64,0.00,,,0.00,WeatherCatV1.15B25,2013-07-10 04:43:00,
2013-07-09 21:48:00,79.5,65.8,29.83,NE,37,0.0,0.0,63,0.00,,,0.00,WeatherCatV1.15B25,2013-07-10 04:48:00,
2013-07-09 21:53:00,79.3,65.6,29.83,NE,37,0.0,0.0,63,0.00,,,0.00,WeatherCatV1.15B25,2013-07-10 04:53:00,
2013-07-09 21:58:00,79.1,66.3,29.83,NE,37,0.0,0.0,65,0.00,,,0.00,WeatherCatV1.15B25,2013-07-10 04:58:00,
2013-07-09 22:03:00,78.9,65.2,29.83,NE,37,0.0,0.0,63,0.00,,,0.00,WeatherCatV1.15B25,2013-07-10 05:03:00,
2013-07-09 22:08:00,78.8,65.6,29.83,NE,37,0.0,0.0,64,0.00,,,0.00,WeatherCatV1.15B25,2013-07-10 05:08:00,
2013-07-09 22:13:00,78.7,65.9,29.83,NE,37,0.0,0.0,65,0.00,,,0.00,WeatherCatV1.15B25,2013-07-10 05:13:00,
2013-07-09 22:18:00,78.6,65.8,29.83,NE,37,0.0,0.0,65,0.00,,,0.00,WeatherCatV1.15B25,2013-07-10 05:18:00,
2013-07-09 22:23:00,78.4,65.6,29.83,NE,37,0.0,0.0,65,0.00,,,0.00,WeatherCatV1.15B25,2013-07-10 05:23:00,
2013-07-09 22:28:00,78.3,65.5,29.83,NE,37,0.0,0.0,65,0.00,,,0.00,WeatherCatV1.15B25,2013-07-10 05:28:00,
2013-07-09 22:33:00,78.1,65.4,29.83,NE,37,0.0,0.0,65,0.00,,,0.00,WeatherCatV1.15B25,2013-07-10 05:33:00,
2013-07-09 22:38:00,77.9,65.6,29.83,NE,37,0.0,0.0,66,0.00,,,0.00,WeatherCatV1.15B25,2013-07-10 05:38:00,
2013-07-09 22:43:00,77.8,65.5,29.84,NE,37,0.0,0.0,66,0.00,,,0.00,WeatherCatV1.15B25,2013-07-10 05:43:00,
2013-07-09 22:48:00,77.6,65.3,29.83,NE,37,0.0,0.0,66,0.00,,,0.00,WeatherCatV1.15B25,2013-07-10 05:48:00,
2013-07-09 22:53:00,77.4,65.1,29.84,NE,37,0.0,0.0,66,0.00,,,0.00,WeatherCatV1.15B25,2013-07-10 05:53:00,
2013-07-09 22:58:00,77.3,65.0,29.84,NE,37,0.0,0.0,66,0.00,,,0.00,WeatherCatV1.15B25,2013-07-10 05:58:00,
2013-07-09 23:03:00,77.1,64.8,29.83,NE,37,0.0,0.0,66,0.00,,,0.00,WeatherCatV1.15B25,2013-07-10 06:03:00,
2013-07-09 23:08:00,77.0,65.2,29.84,NE,37,0.0,0.0,67,0.00,,,0.00,WeatherCatV1.15B25,2013-07-10 06:08:00,
2013-07-09 23:13:00,76.9,65.1,29.84,NE,37,0.0,0.0,67,0.00,,,0.00,WeatherCatV1.15B25,2013-07-10 06:13:00,
2013-07-09 23:18:00,76.7,64.9,29.84,NE,37,0.0,0.0,67,0.00,,,0.00,WeatherCatV1.15B25,2013-07-10 06:18:00,
2013-07-09 23:23:00,76.6,64.8,29.84,NE,37,0.0,0.0,67,0.00,,,0.00,WeatherCatV1.15B25,2013-07-10 06:23:00,
2013-07-09 23:28:00,76.3,64.9,29.84,NE,37,0.0,0.0,68,0.00,,,0.00,WeatherCatV1.15B25,2013-07-10 06:28:00,
2013-07-09 23:33:00,75.9,63.7,29.84,NE,37,0.0,0.0,66,0.00,,,0.00,WeatherCatV1.15B25,2013-07-10 06:33:00,
2013-07-09 23:38:00,75.7,63.5,29.84,NNE,33,0.0,1.0,66,0.00,,,0.00,WeatherCatV1.15B25,2013-07-10 06:38:00,
2013-07-09 23:43:00,75.6,63.4,29.84,West,279,0.0,1.0,66,0.00,,,0.00,WeatherCatV1.15B25,2013-07-10 06:43:00,
2013-07-09 23:48:00,75.6,63.4,29.84,West,279,0.0,0.0,66,0.00,,,0.00,WeatherCatV1.15B25,2013-07-10 06:48:00,
2013-07-09 23:53:00,75.5,63.3,29.84,West,279,0.0,0.0,66,0.00,,,0.00,WeatherCatV1.15B25,2013-07-10 06:53:00,
2013-07-09 23:58:00,75.5,63.3,29.84,West,279,0.0,0.0,66,0.00,,,0.00,WeatherCatV1.15B25,2013-07-10 06:58:00,